This demonstration page uses our WeatherBlox Daily Observations layout. Learn more.

Left ArrowRight Arrow

36.17497, -115.13722

Hourly Observations for April 23, 2020

Temp ( °F °C ) Dew Point ( °F °C ) Humidity (%) Winds ( mph kmh ) Pressure ( in mb ) Visibility ( mi km ) Precip ( " mm )
12:53 am 00:53 Clear 71 21.7 33 0.6 25 25 NW 7 11 29.99 1016 10 16 N/A
1:53 am 01:53 Clear 71 21.7 31 -0.6 23 23 NW 7 11 29.98 1015 10 16 N/A
2:53 am 02:53 Clear 69 20.6 32 undefined 25 25 WNW 8 13 29.97 1015 10 16 N/A
3:53 am 03:53 Clear 71 21.7 31 -0.6 23 23 NW 9 15 29.96 1015 10 16 N/A
4:53 am 04:53 Clear 74 23.3 31 -0.6 20 20 NNW 15 24 29.96 1015 10 16 N/A
5:53 am 05:53 Clear 71 21.7 32 undefined 24 24 NW 14 22 29.98 1015 10 16 N/A
6:53 am 06:53 Sunny 74 23.3 35 1.7 24 24 NW 17 28 30.00 1016 10 16 N/A
7:53 am 07:53 Sunny 77 25 38 3.3 24 24 NNW 16 26 30.02 1017 10 16 N/A
8:53 am 08:53 Sunny 80 26.7 36 2.2 20 20 NNW 16 26 30.02 1017 10 16 N/A
9:53 am 09:53 Sunny 83 28.3 33 0.6 17 17 NNW 18 30 30.01 1016 10 16 N/A
10:53 am 10:53 Sunny 85 29.4 29 -1.7 13 13 N 22 35 29.99 1016 10 16 N/A
11:53 am 11:53 Sunny 86 30 28 -2.2 12 12 NNW 24 39 29.96 1015 10 16 N/A
12:53 pm 12:53 Sunny 87 30.6 27 -2.8 11 11 NNW 18 30 29.93 1014 10 16 N/A
1:53 pm 13:53 Sunny 90 32.2 24 -4.4 9 9 NNW 15 24 29.91 1013 10 16 N/A
2:53 pm 14:53 Sunny 90 32.2 24 -4.4 9 9 NNW 21 33 29.88 1012 10 16 N/A
3:53 pm 15:53 Sunny 89 31.7 25 -3.9 10 10 NNW 23 37 29.86 1011 10 16 N/A
4:53 pm 16:53 Sunny 89 31.7 27 -2.8 11 11 NNW 20 31 29.85 1011 10 16 N/A
5:53 pm 17:53 Sunny 88 31.1 25 -3.9 10 10 NW 21 33 29.85 1011 10 16 N/A
6:53 pm 18:53 Sunny 87 30.6 24 -4.4 10 10 NNW 17 28 29.85 1011 10 16 N/A
7:53 pm 19:53 Clear 82 27.8 28 -2.2 14 14 NW 6 9 29.87 1012 10 16 N/A
8:53 pm 20:53 Clear 80 26.7 29 -1.7 15 15 WNW 9 15 29.89 1012 10 16 N/A
9:53 pm 21:53 Clear 80 26.7 26 -3.3 14 14 WNW 12 19 29.90 1013 10 16 N/A
10:53 pm 22:53 Clear 78 25.6 26 -3.3 15 15 NW 13 20 29.91 1013 10 16 N/A
11:53 pm 23:53 Clear 77 25 23 -5 13 13 NW 15 24 29.92 1013 10 16 N/A

Powered by AerisWeather